BEIDOU-3 M13 (C32)

Last updated on Fri Sep 19 2025 00:03:25 GMT+0000 (Coordinated Universal Time)

1 43622U 18072A 25260.76267079 .00000006 00000+0 00000+0 0 9998 2 43622 56.3835 71.6650 0004021 320.4814 39.5280 1.86231134 47583
UTC large
Height (km)
Speed (km/s)
/
Latitude / Longitude
Inclination (degrees)
Orbital Period (minutes)
Azimuth
Elevation
Range (km)
Doppler Factor

Next 0 passes for location: London (51.5072 / 0.1276)

Sorry there are no passes over London.